Hourly Weather Horinsk

Today, 22 April, Thursday

Time Temperature Precipitation Wind Pressure Humidity
00:00 -2°C° 0 mm 1 mps 704 mmHg 56%
01:00 -1°C° 0 mm 1 mps 705 mmHg 54%
02:00 -2°C° 0.2 mm 1 mps 705 mmHg 57%
03:00 -2°C° 0.2 mm 1 mps 706 mmHg 60%
04:00 -2°C° 0.2 mm 1 mps 706 mmHg 63%
05:00 -2°C° 0 mm 1 mps 707 mmHg 57%
06:00 -1°C° 0 mm 1 mps 707 mmHg 51%
07:00 0°C° 0 mm 1 mps 708 mmHg 46%
08:00 +1°C° 0 mm 1 mps 708 mmHg 39%
09:00 +3°C° 0 mm 1 mps 708 mmHg 33%
10:00 +4°C° 0 mm 1 mps 708 mmHg 27%
11:00 +5°C° 0 mm 1 mps 708 mmHg 25%
12:00 +7°C° 0 mm 1 mps 708 mmHg 22%
13:00 +7°C° 0 mm 1 mps 708 mmHg 20%
14:00 +7°C° 0.1 mm 1 mps 708 mmHg 23%
15:00 +5°C° 0.1 mm 2 mps 708 mmHg 26%
16:00 +4°C° 0.1 mm 3 mps 709 mmHg 29%
17:00 +3°C° 0.1 mm 3 mps 709 mmHg 35%
18:00 +3°C° 0.1 mm 2 mps 710 mmHg 41%
19:00 +2°C° 0.1 mm 2 mps 711 mmHg 47%
20:00 +2°C° 0.1 mm 2 mps 711 mmHg 54%
21:00 +2°C° 0.1 mm 1 mps 712 mmHg 60%
22:00 +1°C° 0.1 mm 1 mps 713 mmHg 67%
23:00 +1°C° 0.3 mm 1 mps 713 mmHg 71%

Tomorrow, 23 April, Friday

Time Temperature Precipitation Wind Pressure Humidity
00:00 0°C° 0.3 mm 1 mps 714 mmHg 75%
01:00 0°C° 0.3 mm 1 mps 714 mmHg 80%
02:00 0°C° 0 mm 1 mps 715 mmHg 76%
03:00 -2°C° 0 mm 2 mps 715 mmHg 73%
04:00 -2°C° 0 mm 2 mps 716 mmHg 69%
05:00 -1°C° 0 mm 2 mps 716 mmHg 62%
06:00 -1°C° 0 mm 2 mps 716 mmHg 55%
07:00 0°C° 0 mm 3 mps 716 mmHg 47%
08:00 +1°C° 0 mm 3 mps 717 mmHg 43%
09:00 +3°C° 0 mm 2 mps 717 mmHg 40%
10:00 +4°C° 0 mm 2 mps 717 mmHg 36%
11:00 +5°C° 0 mm 2 mps 717 mmHg 33%
12:00 +6°C° 0 mm 2 mps 716 mmHg 31%
13:00 +7°C° 0 mm 2 mps 716 mmHg 29%
14:00 +7°C° 0 mm 2 mps 716 mmHg 27%
15:00 +7°C° 0 mm 2 mps 716 mmHg 26%
16:00 +8°C° 0 mm 1 mps 716 mmHg 24%
17:00 +7°C° 0 mm 1 mps 716 mmHg 29%
18:00 +6°C° 0 mm 1 mps 716 mmHg 33%
19:00 +4°C° 0 mm 0 mps 716 mmHg 38%
20:00 +4°C° 0 mm 1 mps 716 mmHg 42%
21:00 +3°C° 0 mm 1 mps 716 mmHg 47%
22:00 +1°C° 0 mm 2 mps 717 mmHg 52%
23:00 +2°C° 0 mm 1 mps 716 mmHg 54%

Day after tomorrow, 24 April, Saturday

Time Temperature Precipitation Wind Pressure Humidity
00:00 +1°C° 0 mm 1 mps 716 mmHg 56%
01:00 +1°C° 0 mm 1 mps 716 mmHg 59%
02:00 +1°C° 0 mm 1 mps 716 mmHg 59%
03:00 +1°C° 0 mm 1 mps 716 mmHg 59%
04:00 0°C° 0 mm 1 mps 716 mmHg 60%
05:00 +2°C° 0 mm 1 mps 716 mmHg 53%
06:00 +2°C° 0 mm 2 mps 716 mmHg 46%
07:00 +3°C° 0 mm 2 mps 716 mmHg 39%
08:00 +5°C° 0 mm 2 mps 715 mmHg 34%
09:00 +7°C° 0 mm 3 mps 715 mmHg 29%
10:00 +7°C° 0 mm 4 mps 714 mmHg 24%
11:00 +10°C° 0 mm 4 mps 713 mmHg 23%
12:00 +11°C° 0 mm 4 mps 712 mmHg 23%
13:00 +13°C° 0 mm 5 mps 710 mmHg 22%
14:00 +13°C° 0 mm 4 mps 710 mmHg 24%
15:00 +13°C° 0 mm 4 mps 709 mmHg 26%
16:00 +13°C° 0 mm 4 mps 708 mmHg 28%
17:00 +12°C° 0 mm 4 mps 707 mmHg 28%
18:00 +11°C° 0 mm 4 mps 707 mmHg 28%
19:00 +10°C° 0 mm 4 mps 706 mmHg 28%
20:00 +9°C° 0.1 mm 3 mps 706 mmHg 34%
21:00 +8°C° 0.1 mm 2 mps 706 mmHg 40%
22:00 +8°C° 0.1 mm 2 mps 706 mmHg 46%
23:00 +8°C° 0.3 mm 1 mps 705 mmHg 55%

25 April, Sunday

Time Temperature Precipitation Wind Pressure Humidity
00:00 +7°C° 0.3 mm 1 mps 705 mmHg 64%
01:00 +7°C° 0.3 mm 1 mps 704 mmHg 73%
02:00 +7°C° 0.3 mm 1 mps 704 mmHg 79%
03:00 +6°C° 0.3 mm 1 mps 704 mmHg 84%
04:00 +6°C° 0.3 mm 1 mps 703 mmHg 90%
05:00 +6°C° 0.2 mm 1 mps 703 mmHg 90%
06:00 +6°C° 0.2 mm 1 mps 703 mmHg 91%
07:00 +6°C° 0.2 mm 1 mps 703 mmHg 92%
08:00 +6°C° 0.2 mm 1 mps 702 mmHg 93%
09:00 +6°C° 0.2 mm 1 mps 702 mmHg 93%
10:00 +5°C° 0.2 mm 0 mps 702 mmHg 93%
11:00 +6°C° 0.3 mm 1 mps 702 mmHg 94%
12:00 +5°C° 0.3 mm 1 mps 702 mmHg 95%
13:00 +5°C° 0.3 mm 1 mps 701 mmHg 97%
14:00 +4°C° 0.2 mm 2 mps 701 mmHg 94%
15:00 +4°C° 0.2 mm 2 mps 701 mmHg 90%
16:00 +4°C° 0.2 mm 2 mps 701 mmHg 87%
17:00 +4°C° 0 mm 2 mps 701 mmHg 85%
18:00 +3°C° 0 mm 2 mps 701 mmHg 82%
19:00 +3°C° 0 mm 2 mps 701 mmHg 79%
20:00 +2°C° 0 mm 2 mps 700 mmHg 80%
21:00 +2°C° 0 mm 2 mps 700 mmHg 81%
22:00 +1°C° 0 mm 2 mps 700 mmHg 82%
23:00 -1°C° 0 mm 2 mps 700 mmHg 83%

26 April, Monday

Time Temperature Precipitation Wind Pressure Humidity
00:00 -2°C° 0 mm 3 mps 700 mmHg 85%
01:00 -2°C° 0 mm 3 mps 699 mmHg 86%
02:00 -4°C° 0 mm 3 mps 699 mmHg 85%
03:00 -4°C° 0 mm 3 mps 699 mmHg 85%
04:00 -4°C° 0 mm 3 mps 699 mmHg 85%
05:00 -3°C° 0 mm 4 mps 699 mmHg 76%
06:00 -1°C° 0 mm 5 mps 699 mmHg 67%
07:00 0°C° 0 mm 5 mps 699 mmHg 59%
08:00 +1°C° 0 mm 6 mps 699 mmHg 53%
09:00 +2°C° 0 mm 7 mps 699 mmHg 47%
10:00 +3°C° 0 mm 7 mps 699 mmHg 41%
11:00 +4°C° 0 mm 7 mps 699 mmHg 40%
12:00 +4°C° 0 mm 8 mps 699 mmHg 38%
13:00 +5°C° 0 mm 8 mps 699 mmHg 36%
14:00 +5°C° 0 mm 8 mps 699 mmHg 39%
15:00 +4°C° 0 mm 8 mps 699 mmHg 41%
16:00 +4°C° 0 mm 8 mps 699 mmHg 43%
17:00 +3°C° 0 mm 7 mps 699 mmHg 51%
18:00 +2°C° 0 mm 7 mps 700 mmHg 58%
19:00 +1°C° 0 mm 6 mps 700 mmHg 65%
20:00 -1°C° 0 mm 6 mps 700 mmHg 68%
21:00 -2°C° 0 mm 6 mps 701 mmHg 70%
22:00 -1°C° 0 mm 5 mps 701 mmHg 73%
23:00 -2°C° 0 mm 5 mps 701 mmHg 75%

27 April, Tuesday

Time Temperature Precipitation Wind Pressure Humidity
00:00 -2°C° 0 mm 5 mps 701 mmHg 77%
01:00 -2°C° 0 mm 5 mps 701 mmHg 80%
02:00 -4°C° 0 mm 5 mps 701 mmHg 77%
03:00 -4°C° 0 mm 5 mps 702 mmHg 75%
04:00 -4°C° 0 mm 6 mps 702 mmHg 73%
05:00 -3°C° 0 mm 6 mps 702 mmHg 65%
06:00 -3°C° 0 mm 7 mps 703 mmHg 57%
07:00 -2°C° 0 mm 7 mps 703 mmHg 49%
08:00 -1°C° 0 mm 7 mps 703 mmHg 44%
09:00 0°C° 0 mm 8 mps 704 mmHg 38%
10:00 +1°C° 0 mm 8 mps 704 mmHg 32%
11:00 +1°C° 0 mm 8 mps 704 mmHg 31%
12:00 +2°C° 0 mm 8 mps 704 mmHg 30%
13:00 +2°C° 0 mm 8 mps 704 mmHg 28%
14:00 +2°C° 0 mm 8 mps 704 mmHg 30%
15:00 +2°C° 0 mm 8 mps 704 mmHg 31%
16:00 +2°C° 0 mm 8 mps 704 mmHg 33%
17:00 0°C° 0 mm 7 mps 705 mmHg 39%
18:00 0°C° 0 mm 5 mps 705 mmHg 44%
19:00 -1°C° 0 mm 4 mps 705 mmHg 50%
20:00 -1°C° 0 mm 3 mps 706 mmHg 56%
21:00 -2°C° 0 mm 2 mps 706 mmHg 61%
22:00 -1°C° 0 mm 1 mps 706 mmHg 67%
23:00 -2°C° 0 mm 1 mps 706 mmHg 70%
Show more

We Need Your Consent

Meteoprog and our Service Providers may store and access personal data such as cookies, device identifiers or other similar technologies on your device and process such data to personalise content and ads, as well as provide social media features and to analyse the traffic.

  • Store and/or access information on your device

    Cookies, device identifiers or other information can be stored or accessed on your device for the purposes indicated above.

  • Personalised ads and content, ad and content measurement, audience insights, and products development

    Ads and content can be personalised based on a profile. More data can be added to better personalise ads and content. Ad and content performance can be measured. Insights about the audience who saw the ads and content can be derived. Such data can be used to develop or improve user’s experience, systems and software.

By clicking ‘I Agree’ you will allow the use of indicated cookies, device identifiers, web beacons or other similar technologies. Your settings can be changed in the browser on your device.

For certain purposes, legitimate interests may be relied on, rather than consent. You can read more about this in our Privacy and Cookie Policy.